This is the latest recevied weather packets stored in our database for station/object KF7SOJ. If no packets are shown the sender has not sent any weather packets the latest 10 day(s).
| Time | Temp. | Humidity | Pressure | Rain* | Wind** | Luminosity | Snow |
|---|---|---|---|---|---|---|---|
| 1778008285 | 9.44° C | 36% | 933.2 hPa | 0 mm | - | 1014 W/m² | - |
| 1778007981 | 10° C | 35% | 933 hPa | 0 mm | - | 352 W/m² | - |
| 1778007676 | 8.89° C | 34% | 933 hPa | 0 mm | - | 393 W/m² | - |
| 1778007373 | 8.33° C | 38% | 933.1 hPa | 0 mm | - | 1156 W/m² | - |
| 1778007069 | 8.89° C | 36% | 933.2 hPa | 0 mm | - | 326 W/m² | - |
| 1778006766 | 8.33° C | 39% | 933.3 hPa | 0 mm | - | 333 W/m² | - |
| 1778006463 | 8.33° C | 39% | 933.3 hPa | 0 mm | - | 333 W/m² | - |
| 1778006159 | 7.78° C | 39% | 933.5 hPa | 0 mm | - | 317 W/m² | - |
| 1778005857 | 8.33° C | 40% | 933.4 hPa | 0 mm | - | 341 W/m² | - |
| 1778005553 | 7.78° C | 38% | 933.3 hPa | 0 mm | - | 305 W/m² | - |
| 1778005250 | 8.33° C | 39% | 933.4 hPa | 0 mm | - | 341 W/m² | - |
| 1778004947 | 8.33° C | 39% | 933.4 hPa | 0 mm | - | 438 W/m² | - |
| 1778004644 | 8.33° C | 39% | 933.4 hPa | 0 mm | - | 473 W/m² | - |
| 1778004339 | 7.78° C | 41% | 933.4 hPa | 0 mm | - | 419 W/m² | - |
| 1778004038 | 8.33° C | 41% | 933.4 hPa | 0 mm | - | 393 W/m² | - |
| 1778003738 | 8.33° C | 39% | 933.4 hPa | 0 mm | - | 384 W/m² | - |
| 1778003435 | 8.89° C | 39% | 933.3 hPa | 0 mm | - | 356 W/m² | - |
| 1778003132 | 8.33° C | 40% | 933.4 hPa | 0 mm | - | 561 W/m² | - |
| 1778002828 | 9.44° C | 37% | 933.4 hPa | 0 mm | - | 433 W/m² | - |
| 1778002525 | 8.89° C | 37% | 933.2 hPa | 0 mm | - | 1123 W/m² | - |
| 1778002222 | 7.78° C | 42% | 933.3 hPa | 0 mm | - | 724 W/m² | - |
| 1778001920 | 7.22° C | 42% | 933.4 hPa | 0 mm | - | 194 W/m² | - |
| 1778001615 | 7.22° C | 41% | 933.3 hPa | 0 mm | - | 197 W/m² | - |
| 1778001311 | 7.78° C | 40% | 933.3 hPa | 0 mm | - | 243 W/m² | - |
| 1778001008 | 7.22° C | 41% | 933.1 hPa | 0 mm | - | 190 W/m² | - |
* Rain latest hour (hover to see other rain measurements)
** Current wind speed in m/s (hover to see current wind gust speed)